K7WBM Weather Reports


Display with metric or nautical units.
time (UTC)temp
F
wind
direction
speed
MPH
gust
MPH
rain 1hr
in
rain 24hr
in
rain mn
in
humidity
%
barometer
mb
20260509224546 83 85 1.0 4.0 0.00 0.00 0.00 21 1016.1
20260509223043 82 0 0.0 5.0 0.00 0.00 0.00 22 1016.3
20260509221535 82 326 0.0 6.0 0.00 0.00 0.00 17 1016.6
20260509201538 79 280 1.0 6.0 0.00 0.00 0.00 17 1017.8
20260509200037 78 0 0.0 7.0 0.00 0.00 0.00 19 1017.8
20260509194538 80 26 0.0 4.0 0.00 0.00 0.00 20 1018.1
20260509193036 79 0 0.0 3.0 0.00 0.00 0.00 22 1018.3
20260509191539 78 131 0.0 4.0 0.00 0.00 0.00 27 1018.5
20260509190040 77 78 1.0 5.0 0.00 0.00 0.00 26 1018.7
20260509184545 77 0 2.0 5.0 0.00 0.00 0.00 20 1018.8
20260509183039 75 0 2.0 6.0 0.00 0.00 0.00 19 1018.9
20260509181629 75 0 0.0 4.0 0.00 0.00 0.00 20 1019.0
20260509173043 73 25 1.0 6.0 0.00 0.00 0.00 22 1019.2
20260509171549 71 0 0.0 6.0 0.00 0.00 0.00 22 1019.2
20260509170218 71 0 0.0 5.0 0.00 0.00 0.00 23 1019.3
20260509164536 69 0 0.0 9.0 0.00 0.00 0.00 24 1019.3
20260509161609 68 327 0.0 4.0 0.00 0.00 0.00 25 1019.4
20260509160054 68 354 2.0 6.0 0.00 0.00 0.00 27 1019.4
20260509154538 66 31 1.0 5.0 0.00 0.00 0.00 27 1019.4
20260509153036 66 338 2.0 7.0 0.00 0.00 0.00 28 1019.3
20260509151540 65 53 1.0 4.0 0.00 0.00 0.00 29 1019.3
20260509150038 64 0 1.0 4.0 0.00 0.00 0.00 28 1019.2
20260509143041 57 329 0.0 2.0 0.00 0.00 0.00 40 1019.2
20260509141630 52 0 0.0 0.0 0.00 0.00 0.00 50 1019.3
20260509140037 48 0 0.0 0.0 0.00 0.00 0.00 62 1019.1
20260509134536 47 0 0.0 0.0 0.00 0.00 0.00 65 1019.0
20260509133054 45 0 0.0 0.0 0.00 0.00 0.00 64 1018.7
20260509131537 45 0 0.0 0.0 0.00 0.00 0.00 58 1018.5
20260509130037 47 103 0.0 2.0 0.00 0.00 0.00 59 1018.3
20260509124540 47 0 0.0 0.0 0.00 0.00 0.00 54 1018.1
20260509123039 48 0 0.0 0.0 0.00 0.00 0.00 51 1018.0
20260509121546 49 0 0.0 0.0 0.00 0.00 0.00 47 1017.9
20260509120040 50 0 0.0 0.0 0.00 0.00 0.00 44 1017.9
20260509114537 52 0 0.0 0.0 0.00 0.00 0.00 42 1017.8
20260509113039 52 0 0.0 1.0 0.00 0.00 0.00 40 1017.7
20260509111537 52 0 0.0 1.0 0.00 0.00 0.00 41 1017.7
20260509110037 52 0 0.0 0.0 0.00 0.00 0.00 41 1017.6
20260509104553 51 0 0.0 0.0 0.00 0.00 0.00 43 1017.6
20260509103035 52 0 0.0 0.0 0.00 0.00 0.00 46 1017.5
20260509101539 52 0 0.0 0.0 0.00 0.00 0.00 42 1017.3
20260509100037 54 0 0.0 0.0 0.00 0.00 0.00 40 1017.1
20260509094537 54 0 0.0 1.0 0.00 0.00 0.00 39 1016.9
20260509093038 53 0 0.0 0.0 0.00 0.00 0.00 43 1016.8
20260509091540 54 0 0.0 0.0 0.00 0.00 0.00 40 1016.7
20260509090048 55 0 0.0 1.0 0.00 0.00 0.00 39 1016.8
20260509084538 55 0 0.0 1.0 0.00 0.00 0.00 40 1016.7
20260509083037 55 0 0.0 1.0 0.00 0.00 0.00 42 1016.8
20260509081549 56 0 0.0 0.0 0.00 0.00 0.00 38 1017.0
20260509080038 59 0 0.0 0.0 0.00 0.00 0.00 34 1017.0
20260509074535 61 0 0.0 1.0 0.00 0.00 0.00 31 1016.7
20260509073045 63 0 0.0 4.0 0.00 0.00 0.00 31 1016.5
20260509071547 64 338 1.0 5.0 0.00 0.00 0.00 31 1016.4
20260509070043 64 0 1.0 5.0 0.00 0.00 0.00 33 1016.5
20260509064538 64 341 1.0 3.0 0.00 0.00 0.00 35 1016.6
20260509063057 64 321 1.0 3.0 0.00 0.00 0.00 35 1016.3
20260509061601 65 0 0.0 4.0 0.00 0.00 0.00 35 1016.3
20260509060051 65 0 0.0 2.0 0.00 0.00 0.00 34 1016.3
20260509054538 65 0 1.0 4.0 0.00 0.00 0.00 34 1016.1
20260509053037 64 0 0.0 2.0 0.00 0.00 0.00 33 1016.0
20260509051538 63 285 0.0 3.0 0.00 0.00 0.00 33 1016.0
20260509050037 61 0 0.0 1.0 0.00 0.00 0.00 35 1015.9
20260509044536 62 0 0.0 2.0 0.00 0.00 0.00 35 1015.8
20260509043036 63 0 0.0 0.0 0.00 0.00 0.00 33 1015.5
20260509041537 64 0 0.0 0.0 0.00 0.00 0.00 32 1015.4
20260509040038 66 0 0.0 0.0 0.00 0.00 0.00 29 1015.2
20260509034537 69 0 0.0 0.0 0.00 0.00 0.00 28 1015.1
20260509033037 72 0 0.0 1.0 0.00 0.00 0.00 26 1015.0
20260509031542 73 0 0.0 3.0 0.00 0.00 0.00 24 1014.9
20260509030042 75 343 1.0 5.0 0.00 0.00 0.00 23 1014.8
20260509024539 76 349 3.0 6.0 0.00 0.00 0.00 21 1014.7
20260509023128 78 347 0.0 6.0 0.00 0.00 0.00 20 1014.6
20260509014625 81 34 3.0 6.0 0.00 0.00 0.00 17 1014.3
20260509010037 82 328 2.0 6.0 0.00 0.00 0.00 12 1014.5
20260509004537 83 357 2.0 6.0 0.00 0.00 0.00 14 1014.6
20260509003040 82 299 2.0 7.0 0.00 0.00 0.00 14 1014.6
20260509001537 83 313 3.0 8.0 0.00 0.00 0.00 13 1014.6
20260509000038 83 0 0.0 9.0 0.00 0.00 0.00 14 1014.6
20260508234536 83 0 1.0 6.0 0.00 0.00 0.00 14 1014.5
20260508233037 83 13 2.0 7.0 0.00 0.00 0.00 17 1014.6
20260508231538 83 49 4.0 9.0 0.00 0.00 0.00 14 1014.6
20260508230037 83 0 0.0 6.0 0.00 0.00 0.00 14 1014.9